Regional Weather Roundup
Issued by NWS

Home | Current Version | Previous Version | Graphics & Text | Print | Product List | Glossary On
Versions: 1 2 3 4 5 6 7 8 9 10 11 12 13 14 15 16 17 18 19 20 21 22 23 24 25 26 27 28 29 30 31 32 33 34 35 36 37 38 39 40 41 42 43 44 45 46 47 48 49 50
573
ASUS43 KLSX 210807
RWRMO

WEATHER SUMMARY FOR MISSOURI
NATIONAL WEATHER SERVICE SPRINGFIELD MO
200 AM CST WED FEB 21 2018

NOTE: "FAIR" INDICATES FEW OR NO CLOUDS BELOW 12,000 FEET WITH NO
       SIGNIFICANT WEATHER AND/OR OBSTRUCTIONS TO VISIBILITY.
       CURRENT SKY AND/OR WEATHER CONDITIONS ARE NOT AVAILABLE FOR
       CHILLICOTHE AND FARMINGTON.

MOZ001>031-035>038-043-044-053-054-210900-
...NORTHERN AND WESTERN MISSOURI...

CITY           SKY/WX    TMP DP  RH WIND       PRES   REMARKS
KANSAS CTY INT MOCLDY    17  13  84 N12       30.42S WCI   4
KANSAS C DTWN  PTCLDY    20  14  77 N13       30.44R WCI   7
LEE`S SUMMIT   CLOUDY    20  16  84 N14       30.41S WCI   7
ST JOSEPH      PTCLDY    16  12  84 N12       30.48R WCI   3
CHILLICOTHE      N/A     20  16  84 N7        30.45R WCI  11
KIRKSVILLE     MOCLDY    21  18  88 NW12      30.41R WCI   9

$$
MOZ066>068-077>081-088>096-101>105-210900-
...SOUTHWEST MISSOURI...

CITY           SKY/WX    TMP DP  RH WIND       PRES   REMARKS
SPRINGFIELD    CLOUDY    27  25  92 N14       30.28R WCI  16
JOPLIN         CLOUDY    25  22  88 N13       30.34R WCI  14

$$
MOZ032>034-039>042-045>050-055>058-069>072-210900-
...CENTRAL MISSOURI...

CITY           SKY/WX    TMP DP  RH WIND       PRES   REMARKS
COLUMBIA       CLOUDY    26  23  88 N14       30.36R WCI  14
JEFFERSON CITY CLOUDY    28  23  81 NW13G18   30.39R WCI  17
ROLLA          CLOUDY    29  28  96 N12       30.31R WCI  19
SEDALIA        CLOUDY    25  20  81 N18       30.40R WCI  11
WHITEMAN AFB   CLOUDY    22  18  82 N3        30.35R
WARRENSBURG    MOCLDY    21  18  86 N6        30.40S WCI  14
OSAGE BEACH    CLOUDY    27  25  92 N7        30.37R FOG     WCI  19

$$
MOZ051-052-059>065-210900-
...EAST CENTRAL MISSOURI...

CITY           SKY/WX    TMP DP  RH WIND       PRES   REMARKS
ST LOUIS INTL  RAIN      33  31  92 NW14      30.33R WCI  23
SPIRIT OF STL  FRZ RAIN  33  30  88 NW15G23   30.32R WCI  23
ST CHARLES     FRZ RAIN  32  29  88 NW18G26   30.34R FOG     WCI  20

$$
MOZ072>076-082>087-097>100-106>115-210900-
...SOUTH CENTRAL AND SOUTHEAST MISSOURI...

CITY           SKY/WX    TMP DP  RH WIND       PRES   REMARKS
CAPE GIRARDEAU RAIN      42  40  92 N17G23    30.22R FOG
FARMINGTON     MIX PCPN  35  33  92 NW13      30.25R WCI  26
POPLAR BLUFF   LGT RAIN  47  45  93 N10       30.20R
WEST PLAINS    RAIN      34  32  92 N9        30.24R FOG     WCI  27

$$



USA.gov is the U.S. government's official web portal to all federal, state and local government web resources and services.